Auburn, AL

9:58 PM CST on November 11, 2019 (GMT -0600)
Auburn-opelika-pitts

Weather History for KAUO - June, 2019

Change the Weather History Date:

Friday, June 14, 2019

  Actual Average Record
Temperature  
Mean Temperature 72 °F -  
Max Temperature 83 °F - 99 °F (1963)
Min Temperature 60 °F - 49 °F (1985)
Cooling Degree Days 7    
Month to date cooling degree days 169  
Year to date cooling degree days 585  
Since 1 June cooling degree days 169  
Growing Degree Days 21 (Base 50)    
Moisture  
Dew Point 55 °F    
Average Humidity 57    
Maximum Humidity 86    
Minimum Humidity 38    
Precipitation  
Precipitation 0.00 in - 4.00 in (1987)
Month to date precipitation 1.15  
Year to date precipitation 21.61  
Sea Level Pressure  
Sea Level Pressure 30.20 in    
Wind  
Wind Speed 6 mph (ENE)    
Max Wind Speed 12 mph    
Max Gust Speed -    
Visibility 10 miles    
Events      
T = Trace of Precipitation, MM = Missing Value Source: NWS Daily Summary

Daily Weather History Graph

Daily Weather History Graph

Search for Another Location

Airport or City:

Astronomy

Jun. 14, 2019 Rise Set
Actual Time 5:33 AM CDT 7:50 PM CDT
Civil Twilight 5:05 AM CDT 8:19 PM CDT
Nautical Twilight 4:30 AM CDT 8:53 PM CDT
Astronomical Twilight 3:52 AM CDT 9:31 PM CDT
Moon 5:20 PM CDT (6/14) 3:40 AM CDT (6/14)
Length of Visible Light 15h 13m
Length of Day
14h 16m
Waxing Gibbous, 92% of the Moon is Illuminated
Jun 14
Waxing Gibbous
Jun 17
Full
Jun 25
Last Quarter
Jul 2
New
Jul 9
First Quarter

Hourly Weather History & Observations

Time (CDT) Temp. Heat Index Dew Point Humidity Pressure Visibility Wind Dir Wind Speed Gust Speed Precip Events Conditions
12:56 AM 64.0 °F - 55.9 °F 75% 30.17 in 10.0 mi NNE 6.9 mph - N/A   Clear
1:56 AM 63.0 °F - 55.9 °F 78% 30.17 in 10.0 mi NNE 5.8 mph - N/A   Clear
2:56 AM 64.0 °F - 54.0 °F 70% 30.17 in 10.0 mi NNE 6.9 mph - N/A   Clear
3:56 AM 60.1 °F - 55.9 °F 86% 30.17 in 10.0 mi NE 6.9 mph - N/A   Clear
4:56 AM 61.0 °F - 55.0 °F 81% 30.19 in 10.0 mi NNE 6.9 mph - N/A   Clear
5:56 AM 62.1 °F - 55.9 °F 80% 30.22 in 10.0 mi NE 8.1 mph - N/A   Clear
6:56 AM 66.0 °F - 55.9 °F 70% 30.23 in 10.0 mi NE 9.2 mph - N/A   Clear
7:56 AM 70.0 °F - 53.1 °F 55% 30.25 in 10.0 mi NE 11.5 mph - N/A   Clear
8:56 AM 73.0 °F - 53.1 °F 49% 30.25 in 10.0 mi NE 10.4 mph - N/A   Clear
9:56 AM 75.0 °F - 54.0 °F 48% 30.25 in 10.0 mi NE 9.2 mph - N/A   Clear
10:56 AM 77.0 °F - 52.0 °F 42% 30.26 in 10.0 mi Variable 3.5 mph - N/A   Clear
11:56 AM 78.1 °F - 53.1 °F 42% 30.25 in 10.0 mi Variable 3.5 mph - N/A   Clear
1:56 PM 80.1 °F 80.0 °F 54.0 °F 40% 30.21 in 10.0 mi Variable 3.5 mph - N/A   Clear
2:56 PM 81.0 °F 80.5 °F 54.0 °F 39% 30.20 in 10.0 mi Variable 5.8 mph - N/A   Clear
3:56 PM 81.0 °F 80.4 °F 53.1 °F 38% 30.19 in 10.0 mi Calm Calm - N/A   Clear
4:56 PM 82.0 °F 81.3 °F 54.0 °F 38% 30.17 in 10.0 mi SE 6.9 mph - N/A   Clear
5:56 PM 81.0 °F 80.8 °F 55.9 °F 42% 30.17 in 10.0 mi ESE 3.5 mph - N/A   Clear
6:56 PM 79.0 °F - 55.0 °F 44% 30.16 in 10.0 mi East 4.6 mph - N/A   Clear
7:56 PM 75.9 °F - 57.0 °F 52% 30.17 in 10.0 mi ESE 3.5 mph - N/A   Clear
8:56 PM 71.1 °F - 59.0 °F 66% 30.17 in 10.0 mi East 3.5 mph - N/A   Clear